THOR ABLESTAR DEB, 230

Orbit data source: Space-Track

THOR ABLESTAR DEB, 230 is space debris in LEO originally from a launch on Thu, 29 Jun 1961 UTC launched from the Air Force Eastern Test Range (AFETR). Debris objects in space refer to the collection of defunct objects orbiting the Earth. Examples of debris include non-operational satellites, rocket bodies, and fragments generated from explosions, collisions, or faulty payload assembly.

Loading next visibility...
Identifier
230, 1961-015BN
Orbit
LEO
Country
Flag of USUS
Related business
Manufacturer
Unknown
Mission
Spacecraft
Bus & Motor
Unknown
Mass
Unknown
Launch date (UTC)
1961-06-29 (64 years ago)
Launch vehicle
Unknown
Launch site
Air Force Eastern Test Range (AFETR)
Object type
Payload
Rocket body
Debris
Shape & HBR
Unknown shape, 0.2 m
Radar Cross Section
Small (<0.1 m²)

Expand to show TLE details & history
Last TLE update: 10 hours ago

TLE from 10 hours ago
0 THOR ABLESTAR DEB
1 00230U 61015BN  25293.95882038  .00000227  00000-0  21117-3 0  9998
2 00230  66.8823 277.0763 0094983 341.5409  18.2234 13.96728568272344
Epoch: 2025-10-20T23:00Z
TLE epoch observation values (Epoch: 2025-10-20T23:00:42.080Z)
Latitude
-0.00008°
Longitude
-97.75273°
Altitude
841.583 km
Speed
7.466 km/s
True Right ascension
18h 28m 18s
True Declination
0° 00' 00"
Sunlit
Object was in daylight at epoch
Visualization orbit readout
Latitude
Unknown
Longitude
Unknown
Altitude
Unknown
Speed
Unknown
Apparent Right ascension
Unknown
Apparent Declination
Unknown
Sunlit
N/A
Visualization observer readout
Local Sidereal Time
03:43:10
Azimuth
Unknown
Elevation
Unknown
Doppler factor
Unknown
Orbital elements
Apogee altitude
972.688 km
Perigee altitude
834.362 km
Semi-major axis
7,281.662 km
Eccentricity
0.0095
Inclination
66.8823°
RAAN
277.0763°
Arg. of periapsis
341.5409°
True anomaly
18.56765°
Mean anomaly
18.2234°
Eccentric anomaly
18.39514°
Mean motion
3.49299 °/min
Orbital period
103.06 mins
BSTAR
0.00021117
Loading maneuver chart data...
Computing Atmospheric mass density...

Documentation

Showing up to 5 results
|